Time,TemperatureF,DewpointF,PressureIn,WindDirection,WindDirectionDegrees,WindSpeedMPH,WindSpeedGustMPH,Humidity,HourlyPrecipIn,Conditions,Clouds,dailyrainin,SoftwareType,DateUTC
2013-08-30 00:25:00,60.0,58.0,30.03,NE,51,0.0,-999.0,92,-99.99,,,-99.99,,2013-08-30 04:25:00,
2013-08-30 00:54:00,60.0,58.0,30.02,NE,51,0.0,-999.0,92,-99.99,,,-99.99,,2013-08-30 04:54:00,
2013-08-30 01:23:00,60.0,58.0,30.01,NE,51,0.0,-999.0,92,-99.99,,,-99.99,,2013-08-30 05:23:00,
2013-08-30 01:52:00,60.0,58.0,30.01,NE,51,0.0,-999.0,92,-99.99,,,-99.99,,2013-08-30 05:52:00,
2013-08-30 02:12:00,60.0,58.0,30.00,NE,51,0.0,-999.0,92,-99.99,,,-99.99,,2013-08-30 06:12:00,
2013-08-30 02:22:00,60.0,58.0,30.00,NE,51,0.0,-999.0,92,-99.99,,,-99.99,,2013-08-30 06:22:00,
2013-08-30 02:53:00,60.0,58.0,30.00,NE,51,0.0,-999.0,92,-99.99,,,-99.99,,2013-08-30 06:53:00,
2013-08-30 03:22:00,60.0,58.0,29.99,NE,51,0.0,-999.0,92,-99.99,,,-99.99,,2013-08-30 07:22:00,
2013-08-30 03:53:00,60.0,58.0,29.97,NE,51,0.0,-999.0,92,-99.99,,,-99.99,,2013-08-30 07:53:00,
2013-08-30 04:22:00,60.0,58.0,29.98,NE,51,0.0,-999.0,92,-99.99,,,-99.99,,2013-08-30 08:22:00,
2013-08-30 04:52:00,60.0,58.0,29.97,NE,51,0.0,-999.0,92,-99.99,,,-99.99,,2013-08-30 08:52:00,
2013-08-30 05:22:00,60.0,58.0,29.97,NE,51,0.0,-999.0,92,-99.99,,,-99.99,,2013-08-30 09:22:00,
2013-08-30 05:53:00,61.0,59.0,29.97,NE,51,0.0,-999.0,92,-99.99,,,-99.99,,2013-08-30 09:53:00,
2013-08-30 06:23:00,61.0,59.0,29.98,NE,51,0.0,-999.0,92,-99.99,,,-99.99,,2013-08-30 10:23:00,
2013-08-30 06:53:00,61.0,59.0,29.98,NE,51,0.0,-999.0,92,-99.99,,,-99.99,,2013-08-30 10:53:00,
2013-08-30 07:22:00,61.0,59.0,29.98,NE,51,0.0,-999.0,93,-99.99,,,-99.99,,2013-08-30 11:22:00,
2013-08-30 07:52:00,61.0,59.0,29.97,NE,51,0.0,-999.0,93,-99.99,,,-99.99,,2013-08-30 11:52:00,
2013-08-30 08:21:00,62.0,60.0,29.97,NE,51,0.0,-999.0,93,-99.99,,,-99.99,,2013-08-30 12:21:00,
2013-08-30 08:42:00,62.0,60.0,29.97,NE,51,0.0,-999.0,93,-99.99,,,-99.99,,2013-08-30 12:42:00,
2013-08-30 08:52:00,63.0,61.0,29.96,NE,51,0.0,-999.0,92,-99.99,,,-99.99,,2013-08-30 12:52:00,
2013-08-30 09:22:00,64.0,61.0,29.97,NE,51,0.0,-999.0,91,-99.99,,,-99.99,,2013-08-30 13:22:00,
2013-08-30 09:52:00,65.0,62.0,29.96,SE,141,0.0,-999.0,91,-99.99,,,-99.99,,2013-08-30 13:52:00,
2013-08-30 10:22:00,66.0,63.0,29.96,SE,124,0.0,-999.0,89,-99.99,,,-99.99,,2013-08-30 14:22:00,
2013-08-30 10:52:00,67.0,63.0,29.95,SSE,151,0.0,-999.0,88,-99.99,,,-99.99,,2013-08-30 14:52:00,
2013-08-30 11:22:00,68.0,64.0,29.94,SSE,151,0.0,-999.0,88,-99.99,,,-99.99,,2013-08-30 15:22:00,
2013-08-30 11:54:00,70.0,66.0,29.94,SSE,151,0.0,-999.0,87,-99.99,,,-99.99,,2013-08-30 15:54:00,
2013-08-30 12:25:00,71.0,67.0,29.92,SE,140,0.0,-999.0,86,-99.99,,,-99.99,,2013-08-30 16:25:00,
2013-08-30 12:53:00,73.0,67.0,29.91,SE,126,0.0,-999.0,82,-99.99,,,-99.99,,2013-08-30 16:53:00,
2013-08-30 13:23:00,74.0,67.0,29.91,East,80,1.0,-999.0,80,-99.99,,,-99.99,,2013-08-30 17:23:00,
2013-08-30 13:53:00,75.0,69.0,29.89,South,170,1.0,-999.0,81,-99.99,,,-99.99,,2013-08-30 17:53:00,
2013-08-30 14:22:00,76.0,69.0,29.88,SE,143,0.0,-999.0,78,-99.99,,,-99.99,,2013-08-30 18:22:00,
2013-08-30 14:52:00,77.0,68.0,29.87,South,172,0.0,-999.0,74,-99.99,,,-99.99,,2013-08-30 18:52:00,
2013-08-30 15:22:00,77.0,69.0,29.86,South,172,0.0,-999.0,76,-99.99,,,-99.99,,2013-08-30 19:22:00,
2013-08-30 15:53:00,78.0,71.0,29.85,NNW,334,0.0,-999.0,78,-99.99,,,-99.99,,2013-08-30 19:53:00,
2013-08-30 16:22:00,80.0,71.0,29.85,WNW,286,1.0,-999.0,73,-99.99,,,-99.99,,2013-08-30 20:22:00,
2013-08-30 16:52:00,79.0,70.0,29.84,SW,224,0.0,-999.0,74,-99.99,,,-99.99,,2013-08-30 20:52:00,
2013-08-30 17:22:00,77.0,70.0,29.84,South,174,0.0,-999.0,80,-99.99,,,-99.99,,2013-08-30 21:22:00,
2013-08-30 17:55:00,76.0,70.0,29.84,South,174,0.0,-999.0,83,-99.99,,,-99.99,,2013-08-30 21:55:00,
2013-08-30 18:24:00,75.0,70.0,29.83,South,174,0.0,-999.0,85,-99.99,,,-99.99,,2013-08-30 22:24:00,
2013-08-30 18:54:00,74.0,70.0,29.83,South,174,0.0,-999.0,87,-99.99,,,-99.99,,2013-08-30 22:54:00,
2013-08-30 19:22:00,73.0,69.0,29.84,South,174,0.0,-999.0,88,-99.99,,,-99.99,,2013-08-30 23:22:00,
2013-08-30 19:53:00,72.0,69.0,29.84,South,174,0.0,-999.0,90,-99.99,,,-99.99,,2013-08-30 23:53:00,
2013-08-30 20:22:00,71.0,68.0,29.84,South,174,0.0,-999.0,91,-99.99,,,-99.99,,2013-08-31 00:22:00,
2013-08-30 20:52:00,70.0,67.0,29.84,South,174,0.0,-999.0,91,-99.99,,,-99.99,,2013-08-31 00:52:00,
2013-08-30 21:22:00,70.0,68.0,29.84,South,174,0.0,-999.0,92,-99.99,,,-99.99,,2013-08-31 01:22:00,
2013-08-30 21:52:00,69.0,67.0,29.84,South,174,0.0,-999.0,92,-99.99,,,-99.99,,2013-08-31 01:52:00,
2013-08-30 22:22:00,69.0,67.0,29.84,South,174,0.0,-999.0,93,-99.99,,,-99.99,,2013-08-31 02:22:00,
2013-08-30 22:42:00,69.0,67.0,29.84,South,174,0.0,-999.0,93,-99.99,,,-99.99,,2013-08-31 02:42:00,
2013-08-30 22:52:00,68.0,66.0,29.84,South,174,0.0,-999.0,93,-99.99,,,-99.99,,2013-08-31 02:52:00,
2013-08-30 23:22:00,68.0,66.0,29.84,South,174,0.0,-999.0,93,-99.99,,,-99.99,,2013-08-31 03:22:00,
2013-08-30 23:54:00,68.0,66.0,29.84,South,174,0.0,-999.0,93,-99.99,,,-99.99,,2013-08-31 03:54:00,